Location: Most
(50.5133°N, 13.6207°E)
Time: 11:23:04
(UTC+01:00)

ISS - Pass Details

Date: 21 March 2017
Orbit: 399 x 409 km, 51.6° (Epoch: 23 March)

Event Time Altitude Azimuth Distance (km) Brightness Sun altitude
Exits shadow 04:36:42 30° 227° (SW) 755 -3.0 -14.8°
Maximum altitude 04:37:06 32° 211° (SSW) 735 -2.9 -14.7°
Drops below altitude 10° 04:40:04 10° 147° (SSE) 1,470 -0.8 -14.3°
Sets 04:42:17 0° 137° (SE) 2,328 0.4 -13.9°
